Weather History for KDKB - April, 2014

Change the Weather History Date:

Saturday, April 12, 2014

  Actual Average (KARR) Record (KARR)
Temperature  
Mean Temperature 60 °F 47 °F  
Max Temperature 78 °F 59 °F 80 °F (2014)
Min Temperature 44 °F 36 °F 21 °F (2000)
Degree Days  
Heating Degree Days 4 18  
Month to date heating degree days 236  
Since 1 July heating degree days 6244  
Cooling Degree Days 0 0  
Month to date cooling degree days 0  
Year to date cooling degree days 0  
Growing Degree Days 10 (Base 50)    
Moisture  
Dew Point 45 °F    
Average Humidity 56    
Maximum Humidity 72    
Minimum Humidity 41    
Precipitation  
Precipitation 0.00 in 0.10 in 0.77 in (2005)
Month to date precipitation 1.25  
Year to date precipitation 6.57  
Sea Level Pressure  
Sea Level Pressure 29.84 in    
Wind  
Wind Speed 13 mph (South)    
Max Wind Speed 29 mph    
Max Gust Speed 38 mph    
Visibility 10 miles    
Events Thunderstorm    
T = Trace of Precipitation, MM = Missing Value Source: NWS Daily Summary

Daily Weather History Graph

Daily Weather History Graph

Search for Another Location

Airport or City:

Trip Planner

Search our weather history database for the weather conditions in past years. The results will help you decide how hot, cold, wet, or windy it might be!

Date:

Astronomy

Apr. 12, 2014 Rise Set
Actual Time 6:19 AM CDT 7:32 PM CDT
Civil Twilight 5:50 AM CDT 8:01 PM CDT
Nautical Twilight 5:16 AM CDT 8:35 PM CDT
Astronomical Twilight 4:39 AM CDT 9:12 PM CDT
Moon 5:08 PM CDT (4/12) 4:48 AM CDT (4/12)
Length of Visible Light 14h 10m
Length of Day
13h 13m
Waxing Gibbous, 93% of the Moon is Illuminated
Apr 12
Waxing Gibbous
Apr 15
Full
Apr 22
Last Quarter
Apr 29
New
May 6
First Quarter

Hourly Weather History & Observations

Time (CDT) Temp. Windchill Dew Point Humidity Pressure Visibility Wind Dir Wind Speed Gust Speed Precip Events Conditions
12:15 AM 46.8 °F - 31.6 °F 56% 30.00 in 10.0 mi SSW 6.9 mph - N/A   Clear
12:35 AM 47.3 °F - 32.2 °F 56% 30.01 in 10.0 mi South 5.8 mph - N/A   Clear
12:55 AM 48.6 °F - 32.0 °F 53% 30.01 in 10.0 mi South 5.8 mph - N/A   Clear
1:15 AM 46.8 °F - 32.0 °F 57% 30.01 in 10.0 mi South 8.1 mph - N/A   Clear
1:35 AM 47.8 °F - 32.0 °F 54% 30.02 in 10.0 mi SSE 5.8 mph - N/A   Clear
1:55 AM 47.1 °F - 32.0 °F 56% 30.02 in 10.0 mi South 6.9 mph - N/A   Clear
2:15 AM 48.2 °F - 31.6 °F 53% 30.01 in 10.0 mi SSE 6.9 mph - N/A   Clear
2:35 AM 47.3 °F - 31.8 °F 55% 30.01 in 10.0 mi SSE 5.8 mph - N/A   Clear
2:55 AM 47.8 °F - 31.1 °F 52% 30.01 in 10.0 mi South 6.9 mph - N/A   Clear
3:15 AM 46.4 °F 43.5 °F 31.1 °F 55% 30.01 in 10.0 mi SSE 5.8 mph - N/A   Clear
3:35 AM 46.4 °F 43.5 °F 30.9 °F 55% 30.01 in 10.0 mi SSE 5.8 mph - N/A   Clear
3:55 AM 46.0 °F 42.5 °F 31.6 °F 57% 30.01 in 10.0 mi SSE 6.9 mph - N/A   Clear
4:15 AM 45.3 °F 41.6 °F 32.5 °F 61% 30.01 in 10.0 mi SSE 6.9 mph - N/A   Clear
4:35 AM 46.8 °F - 32.9 °F 59% 30.01 in 10.0 mi South 8.1 mph - N/A   Clear
4:55 AM 44.6 °F 40.2 °F 32.2 °F 62% 30.01 in 10.0 mi South 8.1 mph - N/A   Clear
5:15 AM 45.9 °F 41.2 °F 33.8 °F 63% 29.99 in 10.0 mi SSE 9.2 mph - N/A   Scattered Clouds
5:35 AM 47.8 °F - 33.8 °F 58% 29.97 in 10.0 mi SSE 9.2 mph - N/A   Mostly Cloudy
5:55 AM 47.3 °F - 34.3 °F 61% 29.97 in 10.0 mi SSE 10.4 mph - N/A   Mostly Cloudy
6:15 AM 46.4 °F 41.5 °F 34.2 °F 62% 29.96 in 10.0 mi SSE 10.4 mph - N/A   Mostly Cloudy
6:35 AM 45.9 °F 40.8 °F 34.0 °F 63% 29.96 in 10.0 mi SSE 10.4 mph - N/A   Scattered Clouds
6:55 AM 44.8 °F 39.9 °F 34.0 °F 66% 29.96 in 10.0 mi SSE 9.2 mph - N/A   Scattered Clouds
7:15 AM 45.0 °F 40.6 °F 34.3 °F 66% 29.96 in 10.0 mi SSE 8.1 mph - N/A   Scattered Clouds
7:35 AM 48.0 °F - 35.1 °F 61% 29.96 in 10.0 mi South 11.5 mph - N/A   Scattered Clouds
7:55 AM 51.3 °F - 35.2 °F 54% 29.96 in 10.0 mi SSE 12.7 mph - N/A   Clear
8:15 AM 52.3 °F - 34.7 °F 51% 29.94 in 10.0 mi SSE 12.7 mph - N/A   Clear
8:35 AM 53.8 °F - 34.7 °F 48% 29.92 in 10.0 mi SSE 15.0 mph 19.6 mph N/A   Clear
8:55 AM 57.7 °F - 34.2 °F 41% 29.91 in 10.0 mi SSE 18.4 mph 25.3 mph N/A Thunderstorm Clear
9:15 AM 59.0 °F - 35.8 °F 42% 29.91 in 10.0 mi South 18.4 mph - N/A   Scattered Clouds
9:35 AM 58.1 °F - 37.2 °F 46% 29.91 in 10.0 mi South 20.7 mph 26.5 mph N/A   Mostly Cloudy
9:55 AM 58.1 °F - 38.8 °F 49% 29.89 in 10.0 mi SSE 18.4 mph - N/A   Mostly Cloudy
10:15 AM 59.4 °F - 40.8 °F 50% 29.88 in 10.0 mi SSE 18.4 mph 23.0 mph N/A   Mostly Cloudy
10:35 AM 62.8 °F - 47.5 °F 57% 29.85 in 10.0 mi SSE 25.3 mph 32.2 mph N/A   Scattered Clouds
10:55 AM 64.4 °F - 48.6 °F 56% 29.87 in 10.0 mi South 24.2 mph 32.2 mph N/A   Clear
11:15 AM 65.8 °F - 50.0 °F 57% 29.86 in 10.0 mi South 21.9 mph 27.6 mph N/A   Scattered Clouds
11:35 AM 66.0 °F - 50.9 °F 58% 29.84 in 10.0 mi South 21.9 mph 25.3 mph N/A   Scattered Clouds
11:55 AM 67.5 °F - 51.3 °F 56% 29.83 in 10.0 mi South 20.7 mph 26.5 mph N/A   Clear
12:15 PM 69.6 °F - 52.2 °F 54% 29.83 in 10.0 mi South 16.1 mph - N/A   Clear
12:35 PM 72.7 °F - 53.1 °F 50% 29.82 in 10.0 mi SSW 24.2 mph 29.9 mph N/A   Clear
12:55 PM 73.6 °F - 53.6 °F 50% 29.81 in 10.0 mi SSW 17.3 mph 28.8 mph N/A Thunderstorm Scattered Clouds
1:15 PM 73.9 °F - 53.8 °F 49% 29.79 in 10.0 mi South 24.2 mph 34.5 mph N/A   Mostly Cloudy
1:35 PM 76.1 °F - 54.5 °F 47% 29.78 in 10.0 mi SSW 24.2 mph 34.5 mph N/A   Mostly Cloudy
1:55 PM 75.2 °F - 54.1 °F 48% 29.77 in 10.0 mi SSW 25.3 mph 32.2 mph N/A   Mostly Cloudy
2:15 PM 75.4 °F - 54.0 °F 47% 29.75 in 10.0 mi SSW 25.3 mph 32.2 mph N/A   Overcast
2:35 PM 75.0 °F - 53.4 °F 47% 29.74 in 10.0 mi SW 26.5 mph 33.4 mph N/A Thunderstorm Overcast
2:55 PM 76.5 °F - 53.6 °F 45% 29.73 in 10.0 mi SSW 26.5 mph 33.4 mph N/A   Mostly Cloudy
3:15 PM 76.3 °F - 54.0 °F 46% 29.72 in 10.0 mi SSW 28.8 mph 34.5 mph N/A   Overcast
3:35 PM 76.5 °F - 53.8 °F 45% 29.71 in 10.0 mi SSW 23.0 mph 36.8 mph N/A Thunderstorm Mostly Cloudy
3:55 PM 76.3 °F - 54.0 °F 46% 29.70 in 10.0 mi South 25.3 mph 35.7 mph N/A Thunderstorm Mostly Cloudy
4:15 PM 77.2 °F - 54.0 °F 44% 29.70 in 10.0 mi SSW 27.6 mph 33.4 mph N/A   Mostly Cloudy
4:35 PM 75.7 °F - 53.2 °F 45% 29.70 in 10.0 mi SSW 27.6 mph 38.0 mph N/A   Mostly Cloudy
4:55 PM 75.2 °F - 53.1 °F 46% 29.70 in 10.0 mi SSW 27.6 mph 32.2 mph N/A   Mostly Cloudy
5:15 PM 74.5 °F - 52.9 °F 47% 29.70 in 10.0 mi SSW 27.6 mph 34.5 mph N/A   Overcast
5:35 PM 74.7 °F - 52.9 °F 46% 29.69 in 10.0 mi SSW 25.3 mph 29.9 mph N/A   Overcast
5:55 PM 74.5 °F - 53.2 °F 47% 29.69 in 10.0 mi SSW 21.9 mph 28.8 mph N/A   Overcast
6:15 PM 73.8 °F - 53.6 °F 49% 29.69 in 10.0 mi South 19.6 mph 25.3 mph N/A   Overcast
6:35 PM 72.9 °F - 53.4 °F 50% 29.69 in 10.0 mi South 17.3 mph 27.6 mph N/A   Mostly Cloudy
6:55 PM 71.2 °F - 53.8 °F 54% 29.70 in 10.0 mi South 16.1 mph - N/A Thunderstorm Mostly Cloudy
7:15 PM 69.8 °F - 53.8 °F 57% 29.70 in 10.0 mi South 15.0 mph - N/A   Scattered Clouds
7:35 PM 68.2 °F - 53.8 °F 60% 29.70 in 10.0 mi South 13.8 mph - N/A   Scattered Clouds
7:55 PM 66.4 °F - 53.8 °F 64% 29.70 in 10.0 mi South 13.8 mph - N/A   Scattered Clouds
8:15 PM 64.4 °F - 53.6 °F 68% 29.71 in 10.0 mi South 11.5 mph - N/A Thunderstorm Scattered Clouds
8:35 PM 64.2 °F - 53.6 °F 68% 29.71 in 10.0 mi South 15.0 mph - N/A   Clear
8:55 PM 63.7 °F - 53.4 °F 69% 29.71 in 10.0 mi South 12.7 mph - N/A   Scattered Clouds
9:15 PM 63.5 °F - 53.6 °F 70% 29.71 in 10.0 mi South 16.1 mph - N/A   Overcast
9:35 PM 63.9 °F - 53.2 °F 68% 29.70 in 10.0 mi South 15.0 mph - N/A   Overcast
9:55 PM 62.6 °F - 53.1 °F 71% 29.70 in 10.0 mi South 13.8 mph - N/A   Mostly Cloudy
10:15 PM 62.8 °F - 53.2 °F 71% 29.69 in 10.0 mi South 15.0 mph - N/A   Overcast
10:35 PM 63.3 °F - 52.9 °F 69% 29.69 in 10.0 mi South 17.3 mph 23.0 mph N/A   Overcast
10:55 PM 62.8 °F - 52.7 °F 70% 29.69 in 10.0 mi South 18.4 mph 21.9 mph N/A   Mostly Cloudy
11:15 PM 62.6 °F - 52.9 °F 70% 29.69 in 10.0 mi South 16.1 mph - N/A   Mostly Cloudy
11:35 PM 62.1 °F - 53.1 °F 72% 29.69 in 10.0 mi South 15.0 mph - N/A   Overcast
11:55 PM 61.9 °F - 52.9 °F 72% 29.69 in 10.0 mi South 12.7 mph - N/A   Overcast